FW2418 Weather Reports


time (UTC)temp
C
wind
direction
speed
KPH
gust
KPH
rain 1hr
cm
rain 24hr
cm
rain mn
cm
humidity
%
barometer
mb
20260509185134 32 279 3.2 8.0 0.00 2.03 0.00 54 1009.3
20260509184133 33 271 3.2 9.7 0.00 2.03 0.00 53 1009.6
20260509183132 33 224 3.2 9.7 0.00 2.03 0.00 53 1009.6
20260509182131 32 276 3.2 8.0 0.00 2.03 0.00 54 1010.0
20260509181131 32 271 3.2 8.0 0.00 2.03 0.00 55 1010.0
20260509180130 33 281 3.2 11.3 0.00 2.03 0.00 55 1010.0
20260509175129 32 182 4.8 11.3 0.00 2.03 0.00 56 1010.0
20260509174128 32 248 3.2 8.0 0.00 2.03 0.00 56 1010.3
20260509173127 32 307 1.6 8.0 0.00 2.03 0.00 57 1010.3
20260509172055 32 275 4.8 12.9 0.00 2.03 0.00 57 1010.0
20260509171054 33 220 1.6 12.9 0.00 2.03 0.00 57 1010.0
20260509170053 32 200 1.6 6.4 0.00 2.03 0.00 60 1010.3
20260509165052 32 193 3.2 6.4 0.00 2.03 0.00 60 1010.3
20260509164051 32 281 1.6 6.4 0.00 2.03 0.00 60 1010.3
20260509163050 32 243 1.6 9.7 0.00 2.03 0.00 62 1010.6
20260509162049 32 271 1.6 11.3 0.00 2.03 0.00 64 1010.6
20260509161048 31 173 3.2 11.3 0.00 2.03 0.00 64 1010.6
20260509160047 31 248 1.6 11.3 0.00 2.03 0.00 65 1010.6
20260509155046 31 221 1.6 11.3 0.00 2.03 0.00 65 1010.6
20260509154045 31 250 1.6 12.9 0.00 2.03 0.00 66 1011.0
20260509153044 31 206 3.2 11.3 0.00 2.03 0.00 67 1011.0
20260509152043 30 224 3.2 11.3 0.00 2.03 0.00 69 1011.0
20260509151042 29 247 1.6 8.0 0.00 2.03 0.00 75 1011.3
20260509145939 28 181 3.2 9.7 0.00 2.03 0.00 85 1011.3
20260509144907 26 180 1.6 9.7 0.00 2.03 0.00 95 1011.3
20260509143906 26 123 3.2 9.7 0.00 2.03 0.00 96 1011.3
20260509142905 25 159 3.2 9.7 0.00 2.03 0.00 96 1011.3
20260509141904 25 203 1.6 8.0 0.00 2.03 0.00 96 1011.0
20260509140832 25 159 3.2 8.0 0.00 2.03 0.00 97 1011.0
20260509135831 25 173 4.8 8.0 0.00 2.03 0.00 97 1010.9
20260509134830 25 188 3.2 8.0 0.00 2.03 0.00 97 1010.9
20260509133829 25 126 1.6 6.4 0.00 2.03 0.00 98 1010.6
20260509132828 25 162 3.2 4.8 0.00 2.03 0.00 98 1010.9
20260509131827 24 101 3.2 4.8 0.00 2.03 0.00 98 1010.9
20260509130826 24 146 1.6 1.6 0.00 2.03 0.00 99 1010.9
20260509125825 23 121 0.0 3.2 0.00 2.03 0.00 99 1010.9
20260509124824 23 113 1.6 4.8 0.00 2.03 0.00 99 1010.9
20260509123823 23 205 0.0 4.8 0.00 2.03 0.00 100 1010.9
20260509122751 23 18 0.0 1.6 0.00 2.03 0.00 100 1010.9
20260509121750 23 115 1.6 1.6 0.00 2.03 0.00 100 1010.9
20260509120750 23 147 0.0 1.6 0.00 2.03 0.00 100 1010.6
20260509115748 22 148 0.0 0.0 0.00 2.03 0.00 100 1010.6
20260509114747 22 148 0.0 1.6 0.00 2.03 0.00 100 1010.6
20260509113747 21 148 0.0 1.6 0.00 2.03 0.00 100 1010.6
20260509112746 21 19 0.0 1.6 0.00 2.03 0.00 100 1010.6
20260509111744 21 19 0.0 0.0 0.00 2.03 0.00 100 1010.6
20260509110743 21 19 0.0 1.6 0.00 2.03 0.00 100 1010.6
20260509105743 21 19 0.0 1.6 0.00 2.03 0.00 100 1010.6
20260509104742 21 15 0.0 0.0 0.00 2.03 0.00 100 1010.6
20260509103741 21 15 0.0 1.6 0.00 2.03 0.00 100 1010.6
20260509102740 21 347 0.0 1.6 0.00 2.03 0.00 100 1010.6
20260509101740 21 347 0.0 1.6 0.00 2.03 0.00 100 1010.6
20260509100708 21 347 0.0 1.6 0.00 2.03 0.00 100 1010.3
20260509095706 21 347 0.0 1.6 0.00 2.03 0.00 100 1010.6
20260509094634 21 347 0.0 1.6 0.00 2.03 0.00 100 1010.3
20260509093633 21 354 0.0 0.0 0.00 2.03 0.00 100 1010.3
20260509092633 21 354 0.0 1.6 0.00 2.03 0.00 100 1010.3
20260509091631 21 354 0.0 1.6 0.00 2.03 0.00 100 1010.3
20260509090631 21 79 0.0 0.0 0.00 2.03 0.00 100 1010.3
20260509085630 21 79 0.0 1.6 0.00 2.03 0.00 100 1010.6
20260509084558 21 79 0.0 1.6 0.00 2.03 0.00 100 1010.6
20260509083557 21 81 0.0 1.6 0.00 2.03 0.00 100 1010.3
20260509082525 21 34 0.0 1.6 0.00 2.03 0.00 100 1010.6
20260509081452 21 15 0.0 1.6 0.00 2.03 0.00 100 1010.6
20260509080451 21 32 0.0 1.6 0.00 2.03 0.00 100 1010.6
20260509075451 21 103 0.0 1.6 0.00 2.03 0.00 100 1010.6
20260509074419 21 18 0.0 1.6 0.00 2.03 0.00 100 1010.6
20260509073418 21 74 1.6 3.2 0.00 2.03 0.00 100 1010.6
20260509072416 21 16 0.0 3.2 0.00 2.03 0.00 100 1010.6
20260509071415 21 43 1.6 4.8 0.00 2.03 0.00 100 1011.0
20260509070415 21 1 1.6 6.4 0.00 2.03 0.00 100 1011.0
20260509065414 21 36 3.2 6.4 0.00 2.03 0.00 100 1011.3
20260509064342 21 356 1.6 1.6 0.00 2.03 0.00 100 1011.3
20260509063341 21 77 1.6 1.6 0.00 2.03 0.00 100 1011.3
20260509062340 21 24 1.6 1.6 0.00 2.03 0.00 100 1011.3
20260509061339 21 32 0.0 1.6 0.00 2.03 0.00 100 1010.9
20260509060338 21 346 0.0 0.0 0.00 2.03 0.00 100 1011.3
20260509055337 21 344 0.0 1.6 0.00 2.03 0.00 100 1011.3
20260509054336 21 346 0.0 1.6 0.00 2.03 0.00 100 1011.3
20260509053335 21 6 0.0 0.0 0.00 2.03 0.00 100 1011.3
20260509052334 21 27 0.0 0.0 0.00 2.03 0.00 100 1011.6
20260509051333 21 27 0.0 0.0 0.00 2.03 0.00 100 1011.6
20260509050332 21 27 0.0 0.0 0.00 2.03 0.00 99 1012.0
20260509045331 21 27 0.0 0.0 0.00 2.03 0.00 99 1012.0
20260509044330 21 27 0.0 0.0 0.00 2.03 0.00 99 1012.0
20260509043258 21 27 0.0 0.0 0.00 2.03 0.00 99 1012.0
20260509042257 21 27 0.0 0.0 0.00 2.03 0.00 99 1012.0
20260509041257 21 27 0.0 0.0 0.00 2.03 0.00 99 1012.3
20260509040256 21 27 0.0 0.0 0.00 2.03 0.00 99 1012.3
20260509035255 21 28 0.0 0.0 0.00 2.03 2.03 99 1012.3
20260509034254 21 27 0.0 0.0 0.00 2.03 2.03 99 1012.3
20260509033253 21 58 0.0 0.0 0.00 2.03 2.03 99 1012.3
20260509032252 21 75 0.0 0.0 0.00 2.03 2.03 99 1012.3
20260509031251 21 75 0.0 0.0 0.00 2.03 2.03 99 1012.3
20260509030250 21 75 0.0 1.6 0.00 2.03 2.03 99 1012.3
20260509025249 21 75 1.6 1.6 0.00 2.03 2.03 99 1012.3
20260509024249 21 319 0.0 1.6 0.00 2.03 2.03 99 1012.3
20260509023248 21 84 0.0 0.0 0.00 2.03 2.03 99 1012.3
20260509022247 21 32 0.0 1.6 0.08 2.03 2.03 99 1012.3
20260509021246 22 32 0.0 3.2 0.28 2.03 2.03 99 1012.0
20260509020245 22 1 1.6 1.6 0.56 2.03 2.03 99 1011.6
20260509015244 22 84 1.6 1.6 0.61 2.03 2.03 99 1011.6
20260509014243 22 33 1.6 3.2 0.61 2.03 2.03 99 1011.6
20260509013242 22 32 0.0 3.2 0.64 2.03 2.03 99 1011.6
20260509012241 22 323 1.6 3.2 1.45 1.93 1.93 98 1011.6
20260509011209 22 316 0.0 8.0 1.73 1.73 1.73 98 1011.6
20260509010137 22 106 1.6 8.0 1.45 1.45 1.45 98 1011.3
20260509005136 21 15 3.2 8.0 1.42 1.42 1.42 98 1010.9
20260509004135 21 132 1.6 17.7 1.42 1.42 1.42 97 1010.6
20260509003103 22 72 4.8 29.0 1.37 1.37 1.37 96 1010.6
20260509002102 25 26 12.9 30.6 0.13 0.13 0.28 87 1011.6
20260509001101 25 303 3.2 11.3 0.00 0.00 0.00 82 1011.0
20260509000100 26 56 3.2 14.5 0.00 0.00 0.00 82 1010.3
20260508235028 27 39 4.8 14.5 0.00 0.00 0.00 79 1009.9
20260508234027 27 50 6.4 11.3 0.00 0.00 0.00 77 1010.3
20260508233026 27 52 3.2 12.9 0.00 0.00 0.00 77 1009.6
20260508232025 28 75 3.2 9.7 0.00 0.00 0.00 78 1009.6
20260508230952 28 38 3.2 12.9 0.00 0.00 0.00 78 1009.6
20260508225920 28 59 3.2 14.5 0.00 0.00 0.00 78 1009.3
20260508224919 28 75 3.2 9.7 0.00 0.00 0.00 77 1008.9
20260508223848 28 100 1.6 11.3 0.00 0.00 0.00 77 1008.6
20260508222847 29 69 3.2 12.9 0.00 0.00 0.00 76 1008.6
20260508221846 29 72 3.2 12.9 0.00 0.00 0.00 75 1008.6
20260508220845 29 111 3.2 12.9 0.00 0.00 0.00 74 1008.3
20260508215845 30 88 3.2 16.1 0.00 0.00 0.00 74 1008.3
20260508214843 30 74 3.2 14.5 0.00 0.00 0.00 72 1008.6
20260508213843 31 82 3.2 12.9 0.00 0.00 0.00 70 1008.6
20260508212811 31 54 4.8 12.9 0.00 0.00 0.00 69 1008.6
20260508211810 31 118 1.6 14.5 0.00 0.00 0.00 71 1008.6
20260508210809 31 96 3.2 11.3 0.00 0.00 0.00 70 1008.6
20260508205808 31 56 4.8 12.9 0.00 0.00 0.00 69 1008.6
20260508204807 31 44 3.2 12.9 0.00 0.00 0.00 68 1008.6
20260508203806 32 118 3.2 8.0 0.00 0.00 0.00 60 1008.6
20260508202734 32 51 1.6 8.0 0.00 0.00 0.00 60 1008.9
20260508201733 32 48 3.2 9.7 0.00 0.00 0.00 61 1008.9
20260508200732 32 59 3.2 11.3 0.00 0.00 0.00 61 1008.9
20260508195731 32 57 3.2 11.3 0.00 0.00 0.00 60 1009.3
20260508194659 33 99 3.2 11.3 0.00 0.00 0.00 60 1009.3
20260508193627 34 29 3.2 11.3 0.00 0.00 0.00 58 1009.3
20260508192626 33 1 1.6 4.8 0.00 0.00 0.00 52 1009.6
20260508191625 33 193 1.6 8.0 0.00 0.00 0.00 55 1009.6
20260508190624 33 320 3.2 12.9 0.00 0.00 0.00 54 1010.0